Location: Newark
(41.0400°S, 62.7845°W)
Time: 16:27:52
(UTC+00:00)

Vanguard 2 Rocket - Pass Details

Date: 04 December 2021
Orbit: 553 x 3325 km, 32.9° (Epoch: 23 January)

Event Time Altitude Azimuth Distance (km) Brightness Sun altitude
Rises 14:55:18 0° 265° (W) 5,509 10.7 66.7°
Reaches altitude 10° 15:00:26 10° 276° (W) 3,953 10.2 67.3°
Maximum altitude 15:07:19 22° 322° (NW) 2,367 9.4 68.1°
Drops below altitude 10° 15:12:06 10° 11° (N) 2,621 9.7 68.6°
Sets 15:14:44 0° 27° (NNE) 3,283 10.1 68.8°
